Location: Bismarck
(46.7731°N, 100.8200°W)
Time: 19:04:54
(UTC-05:00)

Daily predictions for brighter satellites

Satellite Brightness Start Highest point End
(mag) Time Altitude Azimuth Time Altitude Azimuth Time Altitude Azimuth
Cosmos 1943 Rocket 4.0 21:54:54 10° N 21:58:43 18° NE 22:02:31 10° E
Cosmos 1892 Rocket 4.3 21:55:37 10° SSW 22:00:01 59° WNW 22:04:28 10° N
Aureole 2 Rocket 2.5 21:57:47 10° SSW 22:01:38 80° ESE 22:05:09 10° NNE
H-2A R/B 3.9 21:59:30 10° E 22:02:27 16° ENE 22:05:27 10° NNE
SeaSat 1 2.5 22:05:04 10° SE 22:09:59 78° ENE 22:14:57 10° NNW
USA 186 4.3 22:08:46 10° SW 22:10:27 15° W 22:12:06 10° WNW
SPOT 1/Viking Rocket 4.2 22:05:57 10° SE 22:10:46 42° ENE 22:15:36 10° N
CZ-2C R/B 2.8 22:08:53 10° SSW 22:10:47 22° W 22:12:41 10° NW
CZ-4B R/B 4.1 22:11:01 10° NNE 22:15:44 37° E 22:20:32 10° SSE
Cosmos 1461 4.0 22:17:43 10° NW 22:21:46 39° WSW 22:25:36 10° S
Cosmos 1666 4.5 22:31:31 10° NNW 22:34:59 31° W 22:38:26 10° SSW
ARGOS 3.4 22:33:16 12° SSE 22:38:14 59° ENE 22:43:35 10° N
Cosmos 2369 Rocket 2.3 22:32:57 10° NNW 22:38:38 68° ENE 22:43:27 14° SE
Tsikada Rocket 4.2 22:32:22 10° S 22:38:48 84° W 22:45:13 10° N
ATLAS 3B R/B 3.4 22:32:49 10° S 22:39:46 38° ESE 22:46:34 10° NE
Cosmos 1602 Rocket 4.3 22:38:17 10° SSW 22:42:42 57° WNW 22:47:07 10° N
Cosmos 1825 Rocket 3.7 22:43:04 10° S 22:47:24 55° E 22:51:45 10° NNE
SL-16 R/B 4.0 22:44:05 10° WSW 22:49:14 35° NW 22:54:25 10° NNE
CZ-4C R/B 3.9 22:46:15 16° SE 22:49:23 49° ENE 22:53:18 10° N
ISS -2.9 22:46:54 10° SW 22:49:58 39° SE 22:53:04 10° ENE
Cosmos 1812 Rocket 4.3 22:46:11 10° NNW 22:50:27 51° W 22:54:43 10° S
Atlas Centaur 2 4.0 22:44:56 10° SW 22:50:48 23° S 22:55:21 15° SE
Envisat 4.0 22:47:07 10° S 22:51:57 44° W 22:56:50 10° NNW
SL-8 R/B 4.0 22:48:36 10° W 22:53:27 72° N 22:58:18 10° E
MetOp-B 4.5 22:48:37 10° S 22:53:55 65° WSW 22:59:17 10° NNW
USA 234 3.4 22:48:30 15° SE 22:54:10 70° SW 23:00:45 10° NW
PSLV R/B 4.3 22:51:11 10° SW 22:54:18 29° S 22:55:53 20° SE
NOAA 11 4.2 22:49:51 14° SSE 22:54:27 73° ENE 22:59:52 10° N
Cosmos 407 Rocket 4.0 22:51:26 12° S 22:55:54 39° ESE 23:00:45 10° NE
CZ-4 R/B 4.0 22:53:38 10° NNE 22:58:36 63° ESE 23:03:32 10° S
SL-08 RB Rocket 3.7 22:59:24 17° SSE 23:02:52 79° ENE 23:07:25 10° N
Cosmos 1953 3.6 23:01:17 10° NNE 23:04:43 27° ENE 23:06:37 19° ESE
Cosmos 2263 4.2 22:59:13 10° NNW 23:04:52 78° ENE 23:08:56 20° SSE
Lacrosse 5 rocket 3.7 23:03:45 10° WNW 23:07:09 26° NNW 23:10:42 10° NE
Cosmos 1515 4.2 23:04:33 10° SSW 23:08:21 60° W 23:12:12 10° N
SPOT 5 4.2 23:05:14 10° SSW 23:09:08 30° W 23:12:58 10° NW
Landsat 7 3.9 23:06:30 20° SSE 23:09:47 69° ENE 23:14:32 10° N
Meteor 1-22 Rocket 4.2 23:04:41 10° N 23:10:16 87° E 23:14:44 18° S
Spot 4 4.5 23:09:15 20° SE 23:12:11 43° ENE 23:16:44 10° N
USA 81 4.3 23:08:24 10° N 23:13:40 68° W 23:18:23 13° S
Cosmos 1634 Rocket 4.1 23:07:44 10° NNW 23:13:55 75° W 23:19:22 14° S
COSMOS 2455 3.0 23:10:12 10° SW 23:16:13 76° NW 23:22:16 10° NNE
YAOGAN 6 3.8 23:14:15 13° SSW 23:17:18 38° W 23:20:50 10° NNW
Cosmos 1066 Rocket 4.3 23:12:25 10° SSW 23:18:08 85° W 23:24:00 10° N
Lacrosse 5 4.1 23:19:14 10° WNW 23:23:27 25° N 23:27:40 10° NE
Terra 1.9 23:22:47 24° SSE 23:25:36 69° ENE 23:30:21 10° N
Cosmos 1346 Rocket 2.8 23:24:22 17° SSW 23:27:21 78° WNW 23:31:19 10° N
Kosmos-1675 4.3 23:26:30 23° S 23:28:28 52° ESE 23:38:52 10° NE
IGS 5A 3.5 23:27:36 28° SSE 23:29:40 67° ENE 23:33:49 10° N
BREEZE-M DEB (TANK) 1.4 23:28:12 10° WSW 23:30:48 84° SSE 23:31:28 37° ENE
Cosmos 2084 3.8 23:28:13 10° NNW 23:32:15 56° NE 23:34:32 25° ESE
Cosmos 489 Rocket 4.5 23:26:48 10° SSW 23:33:07 79° ESE 23:39:32 10° NNE
Cosmos 1953 Rocket 3.9 23:29:44 14° SSW 23:33:29 67° W 23:37:56 10° N
Cosmos 2279 Rocket 4.0 23:30:57 10° N 23:37:13 83° W 23:41:33 21° S
Cosmos 1842 3.2 23:39:24 32° S 23:41:05 71° E 23:45:00 10° NNE
H-2A R/B 2.0 23:38:18 26° S 23:41:12 82° WSW 23:46:18 10° NNW
SAR-Lupe-2 3.7 23:39:44 32° S 23:41:13 67° WSW 23:44:48 10° NNW
Cosmos 1943 3.5 23:35:44 10° SW 23:41:23 70° WNW 23:47:07 10° NNE
Geosat 3.9 23:36:58 10° NNE 23:42:02 82° ESE 23:46:45 12° SSW
Lacrosse 4 Rocket 1.2 23:39:17 14° SSW 23:42:44 88° SE 23:46:53 10° NNE
Cosmos 2221 4.5 23:40:18 10° NNE 23:43:11 17° ENE 23:44:51 14° E
Cosmos 1943 Rocket 2.1 23:37:43 10° NNW 23:43:19 86° ENE 23:46:20 28° SSE
Cosmos-2242 3.0 23:42:05 10° N 23:46:30 88° W 23:48:31 32° S
Cosmos 1570 Rocket 4.2 23:41:56 10° NNW 23:47:17 63° ENE 23:50:00 29° SE
Meteor 1-21 4.4 23:45:51 16° SSW 23:50:32 79° WNW 23:56:24 10° N
Cosmos 1758 3.3 23:46:28 10° N 23:50:37 82° E 23:52:08 38° SSE
Cosmos 1900 4.3 23:46:01 10° SSW 23:51:10 81° ESE 23:56:20 10° NE
